Regional Weather Roundup
Issued by NWS

Home | Current Version | Previous Version | Text Only | Print | Product List | Glossary Off
Versions: 1 2 3 4 5 6 7 8 9 10 11 12 13 14 15 16 17 18 19 20 21 22 23 24 25 26 27 28 29 30 31 32 33 34 35 36 37 38 39 40 41 42 43 44 45 46 47 48 49 50

207
ASUS43 KMPX 240801
RWRMN
WEATHER ROUNDUP FOR MINNESOTA
NATIONAL WEATHER SERVICE TWIN CITIES/CHANHASSEN MN
300 AM CDT FRI MAR 24 2017


NOTE: "FAIR" INDICATES FEW OR NO CLOUDS BELOW 12,000 FEET WITH NO
SIGNIFICANT WEATHER AND/OR OBSTRUCTIONS TO VISIBILITY. N/A MEANS
CURRENT SKY AND/OR WEATHER CONDITIONS ARE NOT AVAILABLE.

MNZ060>063-068>070-240900-
   Twin Cities Metro

CITY           SKY/WX    TMP DP  RH WIND       PRES   REMARKS
TWIN CITIES    CLOUDY    39  36  89 SE7       29.85S FOG
ST PAUL        CLOUDY    38  38 100 S12       29.87S
CRYSTAL        LGT RAIN  38  35  89 CALM      29.82F FOG
BLAINE         CLOUDY    39  39 100 E3        29.82S FOG
LAKEVILLE      LGT RAIN  36  36 100 E7        29.84R
EDEN PRAIRIE   CLOUDY    39  37  92 SE7       29.83S FOG
SOUTH ST PAUL  CLOUDY    39  37  95 SE6       29.85S
LAKE ELMO      CLOUDY    37  37 100 SE8       29.85F
$$
MNZ001>005-007-008-013>017-022>024-027-028-240900-
   Northwest Minnesota

CITY           SKY/WX    TMP DP  RH WIND       PRES   REMARKS
BEMIDJI        CLOUDY    32  32 100 NW3       29.89S FOG
HALLOCK        CLEAR     32  30  93 N10       29.98R WCI  24
ROSEAU         PTCLDY    34  28  80 N9        29.95R WCI  26
WARROAD        CLEAR     34  28  80 NW5       29.94R WCI  30
THIEF RVR FALL CLOUDY    34  33  96 N10       29.94R WCI  26
CROOKSTON      CLOUDY    32  32 100 CALM      29.96R FOG
FOSSTON        CLOUDY    30  30 100 CALM      29.93R FOG
DETROIT LAKES  CLOUDY    32  32 100 N3        29.90R FOG
MOORHEAD       CLOUDY    34  32  93 NW5       29.93R FOG     WCI  30
PARK RAPIDS    CLOUDY    34  31  88 CALM      29.88S FOG
MAHNOMEN       CLOUDY    32  32 100 N5        29.91S FOG     WCI  27
$$
MNZ006-009>011-018-025>026-240900-
   North Central Minnesota

CITY           SKY/WX    TMP DP  RH WIND       PRES   REMARKS
BAUDETTE       CLOUDY    34  32  92 NW9       29.91R WCI  27
FLAG ISLAND    MOCLDY    34  30  86 NW9       29.92R WCI  26
INTL FALLS     CLOUDY    34  31  88 W5        29.90R FOG     WCI  30
WASKISH        CLOUDY    34  34 100 CALM      29.90S FOG
BIG FORK       CLOUDY    34  30  86 CALM      29.88S FOG
LONGVILLE      CLOUDY    32  32 100 CALM      29.89S FOG
GRAND RAPIDS   CLOUDY    32  32 100 CALM      29.92R FOG
CRANE LAKE     CLOUDY    30  30 100 CALM      29.90F FOG
ORR            CLOUDY    32  30  93 CALM      29.86F FOG
COOK           CLOUDY    32  30  93 CALM      29.88F FOG
WALKER         CLOUDY    32  32  99 CALM      29.89R FOG
$$
MNZ012-019>021-037-240900-
   Northeast Minnesota

CITY           SKY/WX    TMP DP  RH WIND       PRES   REMARKS
DULUTH         DRIZZLE   33  31  92 CALM      29.90R FOG
ELY            CLOUDY    32  32 100 CALM      29.87F FOG
HIBBING        CLOUDY    31  31 100 CALM      29.89S FOG
EVELETH        CLOUDY    32  31  96 CALM      29.89F FOG
DULUTH HARBOR  MIX PCPN  34  32  93 CALM      29.94S VSB 1
TWO HARBORS    DRIZZLE   36  30  80 CALM      29.89S
SILVER BAY     CLOUDY    34  34 100 CALM      29.88F FOG
GRAND MARAIS     N/A     33  32  96 CALM      29.91R
G MARAIS ARPRT CLOUDY    28  27  93 CALM      29.86S FOG
$$
MNZ029>031-032-039>041-046>048-054>057-064-240900-
   West Central Minnesota

CITY           SKY/WX    TMP DP  RH WIND       PRES   REMARKS
FERGUS FALLS   CLOUDY    34  34 100 CALM      29.93S
WHEATON        CLOUDY    34  34 100 CALM      29.94R FOG
MORRIS         CLOUDY    34  34 100 N6        29.89R FOG     WCI  29
ALEXANDRIA     CLOUDY    34  33  96 N5        29.90R FOG     WCI  30
ELBOW LAKE     CLOUDY    33  33 100 CALM      29.91R FOG
WADENA         CLOUDY    32  32 100 CALM      29.89R FOG
GLENWOOD       CLOUDY    34  34 100 N6        29.90R FOG     WCI  29
APPLETON       CLOUDY    36  34  93 CALM      29.88R FOG
BENSON         CLOUDY    37  34  87 NE5       29.90R FOG
ORTONVILLE     CLOUDY    34  32  93 N8        29.89R FOG     WCI  27
MADISON        CLOUDY    37  37 100 N7        29.87S FOG
WILLMAR        FAIR      36  36 100 N5        29.87R FOG
$$
MNZ033>034-036-042>043-049>051-058-059-240900-
   Central Minnesota

CITY           SKY/WX    TMP DP  RH WIND       PRES   REMARKS
ST CLOUD       CLOUDY    35  35 100 N6        29.86S FOG     WCI  30
SAUK CENTRE    DRIZZLE   33  33  99 N7        29.89R WCI  27
PAYNESVILLE    DRIZZLE   35  35 100 N6        29.86S WCI  30
AITKIN         MIX PCPN  36  30  80 CALM      29.89R
PINE RIVER     CLOUDY    32  32 100 CALM      29.93R FOG
BRAINERD       CLOUDY    33  32  96 N5        29.90R FOG     WCI  29
STAPLES        CLOUDY    32  32 100 CALM      29.90R FOG
LONG PRAIRIE   MIX PCPN  32  32 100 CALM      29.90R
LITTLE FALLS   MIX PCPN  32  32 100 CALM      29.89F
LITCHFIELD     CLOUDY    37  36  93 N3        29.86R FOG
BUFFALO        CLOUDY    36  35  95 N6        29.85R FOG
MAPLE LAKE     CLOUDY    37  37  99 N3        29.86R FOG
HUTCHINSON     CLOUDY    37  37 100 CALM      29.84R
$$
MNZ037-044-045-052-053-240900-
   East Central Minnesota

CITY           SKY/WX    TMP DP  RH WIND       PRES   REMARKS
PRINCETON      CLOUDY    36  34  93 N7        29.87R FOG
MORA           CLOUDY    34  32  93 N3        29.89F FOG
CAMBRIDGE      CLOUDY    37  34  87 N5        29.84F FOG
RUSH CITY      CLOUDY    33  33  96 N6        29.86F FOG     WCI  28
MOOSE LAKE     MIX PCPN  32  32 100 N3        29.89S
HINCKLEY       CLOUDY    34  34 100 N6        29.89F FOG     WCI  29
CLOQUET        MIX PCPN  32  30  93 CALM      29.90R
MCGREGOR       CLOUDY    32  32 100 CALM      29.91R
$$
MNZ071>073-080-081-089-090-097-098-240900-
   Southwest Minnesota

CITY           SKY/WX    TMP DP  RH WIND       PRES   REMARKS
MONTEVIDEO     MIX PCPN  36  36 100 NE6       29.88R
GRANITE FALLS  CLOUDY    37  37  97 N7        29.86S FOG
CANBY          FOG       36  36 100 CALM      29.86F VSB 1
MARSHALL       FOG       35  35 100 N13       29.81F VSB 1/2 WCI  26
REDWOOD FALLS  LGT RAIN  39  37  92 NE5       29.80F FOG
OLIVIA         CLOUDY    36  34  93 N6        29.83R FOG
PIPESTONE      CLOUDY    37  34  87 NE8       29.76F FOG
WINDOM         RAIN      37  37 100 NE9       29.78R
WORTHINGTON    LGT RAIN  37  36  96 NE9       29.74F FOG
JACKSON        RAIN      37  37 100 SE9       29.77F
TRACY          CLOUDY    37  37  98 N8        29.78F FOG
SLAYTON        CLOUDY    36  35  98 N9        29.77F FOG
$$
MNZ065>067-074>077-082>085-091>093-240900-
   South Central Minnesota

CITY           SKY/WX    TMP DP  RH WIND       PRES   REMARKS
MANKATO        LGT RAIN  39  37  92 E9        29.80F FOG
NEW ULM        CLOUDY    37  37 100 E6        29.81F FOG
ST JAMES       LGT RAIN  39  37  93 CALM      29.79F
FAIRMONT       RAIN      39  38  96 E5        29.82R FOG
GLENCOE        CLOUDY    38  38 100 E3        29.83R
FARIBAULT      RAIN      37  36  93 NE6       29.83F
OWATONNA       LGT RAIN  39  36  87 E5        29.84R
WASECA         HVY RAIN  39  36  87 NE9       29.83F
ALBERT LEA     MIX PCPN  39  39 100 E8        29.79F
$$
MNZ078>079-086>088-094>096-240900-
   Southeast Minnesota

CITY           SKY/WX    TMP DP  RH WIND       PRES   REMARKS
ROCHESTER      LGT RAIN  39  38  96 E6        29.82F FOG
RED WING       CLOUDY    39  34  81 E5        29.86R
STANTON        CLOUDY    39  36  87 E6        29.83R
DODGE CENTER   HVY RAIN  37  36  93 NE7       29.82F
WINONA         TSTM      37  37 100 N5        29.89R
AUSTIN         RAIN      41  37  87 S3        29.82S
PRESTON        CLOUDY    40  37  89 CALM      29.84R
$$
ABBREVIATIONS USED IN REMARKS
   TC - TEMPERATURES IN CELSIUS
  WCI - WIND CHILL INDEX
   HX - HEAT INDEX
  VSB - VISIBILITY
$$




USA.gov is the U.S. government's official web portal to all federal, state and local government web resources and services.